TimeMDT,TemperatureF,Dew PointF,Humidity,Sea Level PressureIn,VisibilityMPH,Wind Direction,Wind SpeedMPH,Gust SpeedMPH,PrecipitationIn,Events,Conditions,WindDirDegrees,DateUTC
12:53 AM,54.0,8.1,16,29.73,10.0,Calm,Calm,-,N/A,,Clear,0,2013-04-23 06:53:00
1:53 AM,57.9,10.0,15,29.71,10.0,WSW,10.4,-,N/A,,Clear,250,2013-04-23 07:53:00
2:53 AM,54.0,10.9,18,29.71,10.0,West,6.9,-,N/A,,Clear,270,2013-04-23 08:53:00
3:53 AM,52.0,9.0,18,29.72,10.0,South,6.9,-,N/A,,Clear,180,2013-04-23 09:53:00
4:53 AM,51.1,15.1,24,29.72,10.0,West,4.6,-,N/A,,Clear,270,2013-04-23 10:53:00
5:53 AM,48.0,10.9,22,29.74,10.0,West,4.6,-,N/A,,Clear,260,2013-04-23 11:53:00
6:53 AM,46.9,10.0,22,29.76,10.0,SSE,4.6,-,N/A,,Clear,160,2013-04-23 12:53:00
7:53 AM,59.0,8.1,13,29.77,10.0,West,3.5,-,N/A,,Clear,260,2013-04-23 13:53:00
8:53 AM,63.0,10.9,13,29.78,10.0,Calm,Calm,-,N/A,,Clear,0,2013-04-23 14:53:00
9:53 AM,73.0,12.9,10,29.75,10.0,West,15.0,21.9,N/A,,Clear,270,2013-04-23 15:53:00
10:53 AM,75.9,12.9,9,29.75,10.0,West,13.8,24.2,N/A,,Clear,260,2013-04-23 16:53:00
11:53 AM,80.1,12.0,8,29.72,10.0,West,23.0,29.9,N/A,,Clear,260,2013-04-23 17:53:00
12:53 PM,81.0,10.0,7,29.71,8.0,WSW,24.2,34.5,N/A,,Clear,250,2013-04-23 18:53:00
1:53 PM,82.0,10.0,7,29.68,9.0,West,28.8,35.7,N/A,,Clear,260,2013-04-23 19:53:00
2:53 PM,84.0,9.0,6,29.67,8.0,West,25.3,40.3,N/A,,Clear,280,2013-04-23 20:53:00
3:53 PM,84.0,10.0,6,29.66,7.0,West,23.0,38.0,N/A,,Clear,270,2013-04-23 21:53:00
4:53 PM,82.0,10.0,7,29.66,8.0,WNW,23.0,39.1,N/A,,Clear,290,2013-04-23 22:53:00
5:53 PM,81.0,10.0,7,29.68,8.0,West,24.2,42.6,N/A,,Clear,280,2013-04-23 23:53:00
6:53 PM,80.1,12.9,8,29.70,10.0,WNW,16.1,-,N/A,,Clear,290,2013-04-24 00:53:00
7:53 PM,75.0,15.1,10,29.70,10.0,WNW,16.1,25.3,N/A,,Clear,290,2013-04-24 01:53:00
8:53 PM,71.1,15.1,12,29.73,10.0,West,9.2,-,N/A,,Clear,280,2013-04-24 02:53:00
9:53 PM,66.0,15.1,14,29.76,10.0,NW,8.1,-,N/A,,Clear,310,2013-04-24 03:53:00
10:53 PM,62.1,12.0,14,29.79,10.0,NNE,6.9,-,N/A,,Clear,20,2013-04-24 04:53:00
11:53 PM,63.0,19.9,19,29.80,10.0,NNE,16.1,21.9,N/A,,Clear,30,2013-04-24 05:53:00